Temp
-14 -14 -14 -14 -14 -14 -14 -14 -14 -15 -15 -16 -16 -16 -16 -16 -17 -17 -17 -17 -17 -17 -17 -17 -17 -17 -17 -17 -17 -17 -17 -17
-15 -15 -15 -15 -15 -15 -15 -15 -15 -16 -16 -16 -16 -16 -16 -17 -17 -17 -17 -17 -17 -17 -17 -17 -17 -17 -17 -17 -18 -18 -18 -18
-15 -15 -15 -16 -16 -15 -15 -16 -16 -16 -16 -16 -17 -17 -17 -17 -17 -18 -18 -17 -18 -18 -17 -17 -17 -18 -18 -18 -18 -19 -19 -19
-16 -16 -16 -16 -16 -16 -16 -16 -17 -17 -17 -17 -18 -18 -18 -17 -17 -17 -17 -18 -18 -18 -18 -18 -18 -19 -19 -20 -20 -20 -19 -20
-16 -16 -16 -16 -16 -16 -17 -17 -17 -17 -17 -17 -18 -18 -18 -18 -18 -18 -18 -18 -19 -19 -20 -19 -19 -19 -19 -19 -19 -19 -20 -20
-16 -16 -16 -16 -17 -17 -17 -17 -17 -17 -18 -18 -18 -18 -18 -19 -19 -20 -20 -19 -19 -19 -19 -19 -19 -19 -19 -19 -20 -20 -21 -21
-17 -17 -17 -17 -17 -16 -17 -18 -18 -19 -19 -19 -19 -19 -19 -19 -19 -18 -18 -18 -18 -18 -18 -18 -18 -19 -19 -20 -21 -22 -22 -23
-17 -17 -17 -16 -17 -17 -18 -18 -18 -18 -18 -18 -18 -18 -18 -18 -18 -18 -18 -18 -18 -18 -18 -19 -19 -20 -20 -21 -22 -23 -23 -24
-17 -17 -17 -17 -17 -17 -17 -18 -18 -18 -17 -18 -18 -18 -18 -18 -18 -18 -18 -18 -18 -19 -19 -20 -20 -21 -22 -23 -24 -25 -26 -27
-16 -16 -17 -17 -17 -17 -18 -18 -18 -18 -18 -18 -18 -18 -18 -18 -18 -18 -18 -19 -19 -20 -20 -20 -21 -22 -23 -24 -25 -25 -28 -30
-16 -16 -16 -16 -17 -17 -17 -17 -18 -19 -19 -19 -19 -18 -18 -18 -18 -19 -19 -19 -20 -20 -20 -21 -23 -23 -24 -25 -27 -29 -31 -31
-16 -16 -16 -16 -17 -17 -17 -18 -18 -19 -19 -19 -19 -19 -19 -19 -19 -19 -20 -20 -20 -21 -22 -23 -24 -25 -26 -28 -30 -31 -32 -33
-16 -16 -16 -17 -17 -18 -18 -19 -19 -19 -19 -19 -19 -19 -19 -19 -20 -20 -20 -21 -21 -23 -24 -24 -26 -27 -29 -30 -31 -32 -34 -34
-16 -16 -17 -17 -18 -18 -18 -19 -19 -20 -20 -19 -19 -20 -20 -20 -20 -20 -21 -21 -23 -23 -24 -26 -27 -29 -31 -31 -32 -33 -33 -33
-16 -17 -17 -18 -18 -18 -19 -19 -20 -20 -20 -20 -20 -20 -20 -21 -21 -21 -22 -23 -23 -24 -26 -27 -29 -31 -32 -32 -32 -33 -33 -33
-17 -17 -18 -18 -19 -19 -19 -20 -20 -20 -20 -20 -21 -21 -21 -21 -21 -22 -23 -23 -24 -26 -27 -29 -31 -32 -32 -32 -32 -33 -33 -33
-17 -17 -18 -19 -19 -19 -20 -20 -21 -21 -21 -21 -21 -21 -21 -21 -22 -22 -23 -24 -26 -27 -29 -30 -31 -32 -32 -32 -33 -33 -33 -33
-17 -18 -18 -19 -20 -20 -21 -21 -21 -21 -21 -21 -21 -21 -21 -22 -22 -23 -24 -26 -27 -29 -30 -31 -32 -32 -32 -33 -33 -33 -33 -33
-18 -18 -19 -20 -20 -20 -21 -21 -21 -21 -21 -21 -21 -22 -22 -23 -23 -25 -26 -28 -29 -30 -31 -32 -33 -33 -33 -32 -33 -33 -33 -33
Height
5809 5808 5807 5806 5805 5804 5802 5799 5797 5794 5791 5784 5781 5778 5774 5771 5768 5763 5760 5757 5753 5748 5744 5740 5735 5732 5727 5721 5717 5713 5709 5706
5806 5805 5803 5802 5801 5799 5796 5793 5790 5786 5784 5780 5776 5772 5767 5763 5760 5757 5753 5747 5743 5739 5734 5729 5723 5717 5712 5707 5701 5695 5690 5686
5803 5802 5801 5799 5797 5794 5791 5789 5785 5781 5777 5773 5768 5764 5759 5755 5751 5747 5742 5739 5734 5729 5723 5716 5709 5703 5697 5690 5683 5676 5669 5663
5798 5796 5794 5793 5791 5789 5785 5783 5779 5774 5769 5764 5758 5753 5749 5745 5741 5737 5733 5728 5722 5715 5707 5700 5693 5686 5679 5671 5665 5660 5652 5644
5794 5793 5791 5788 5785 5782 5778 5775 5770 5764 5758 5753 5748 5744 5740 5736 5732 5727 5722 5716 5708 5700 5693 5686 5679 5671 5665 5656 5648 5637 5625 5616
5789 5787 5782 5781 5778 5775 5771 5765 5760 5755 5749 5745 5740 5736 5732 5727 5722 5717 5711 5705 5697 5689 5680 5672 5663 5653 5642 5631 5622 5613 5603 5595
5784 5780 5776 5772 5769 5765 5761 5758 5753 5748 5743 5739 5735 5730 5725 5720 5714 5707 5699 5689 5680 5671 5662 5651 5640 5630 5620 5613 5601 5588 5578 5567
5777 5773 5770 5764 5762 5759 5756 5752 5747 5742 5738 5733 5727 5720 5713 5707 5699 5691 5682 5674 5664 5654 5645 5634 5624 5612 5600 5587 5572 5557 5544 5531
5772 5768 5764 5760 5756 5753 5749 5744 5738 5734 5728 5721 5715 5708 5701 5694 5685 5677 5668 5659 5651 5641 5630 5616 5602 5587 5573 5557 5542 5529 5515 5506
5765 5762 5759 5755 5751 5746 5740 5735 5729 5724 5718 5711 5703 5696 5689 5681 5672 5664 5655 5645 5634 5621 5608 5592 5575 5562 5548 5533 5518 5506 5495 5484
5761 5758 5754 5749 5743 5737 5730 5723 5716 5710 5703 5696 5689 5682 5675 5666 5658 5648 5637 5624 5611 5598 5585 5570 5556 5540 5526 5509 5493 5480 5473 5467
5753 5748 5743 5738 5731 5725 5718 5711 5704 5698 5690 5683 5676 5669 5660 5650 5640 5630 5619 5607 5594 5580 5567 5552 5534 5516 5498 5484 5474 5467 5459 5454
5743 5738 5732 5726 5719 5713 5707 5700 5693 5685 5677 5670 5662 5654 5646 5636 5626 5615 5604 5591 5577 5560 5542 5525 5508 5493 5479 5468 5460 5453 5448 5444
5735 5729 5723 5717 5711 5704 5697 5689 5680 5674 5666 5658 5651 5642 5632 5622 5612 5600 5587 5574 5557 5540 5521 5503 5488 5474 5465 5457 5450 5445 5441 5437
5727 5721 5715 5708 5701 5694 5686 5678 5670 5662 5654 5646 5638 5628 5619 5609 5596 5583 5569 5552 5536 5518 5500 5484 5471 5462 5455 5449 5444 5439 5435 5429
5717 5711 5705 5698 5690 5684 5676 5667 5659 5651 5643 5634 5625 5615 5604 5592 5579 5564 5549 5533 5515 5497 5481 5468 5459 5452 5447 5443 5438 5432 5427 5420
5707 5700 5693 5686 5680 5673 5664 5655 5647 5640 5631 5622 5611 5600 5588 5575 5562 5547 5529 5511 5495 5480 5466 5456 5449 5443 5439 5435 5429 5424 5418 5411
5695 5688 5681 5675 5667 5659 5651 5644 5636 5628 5618 5607 5595 5583 5570 5556 5541 5526 5508 5490 5474 5462 5452 5446 5439 5435 5431 5426 5421 5415 5409 5403
5684 5676 5669 5663 5655 5648 5640 5632 5623 5613 5602 5591 5579 5567 5552 5537 5521 5503 5488 5473 5460 5449 5441 5435 5431 5427 5423 5419 5413 5407 5401 5393
Wind_Speed
13 15 16 16 19 23 22 22 24 24 33 41 45 43 43 38 38 41 42 48 52 51 49 49 50 53 53 55 57 59 61 62
14 17 20 21 19 22 26 30 30 36 43 51 50 48 42 39 41 47 53 52 48 48 50 54 56 58 60 63 66 68 70 72
17 20 18 19 24 28 29 34 39 43 47 50 49 48 48 49 47 45 45 46 47 51 55 58 61 63 66 70 73 76 78 80
17 18 20 29 33 37 37 39 41 43 47 46 41 40 41 42 42 43 43 48 53 57 61 63 65 68 71 75 77 80 83 84
22 21 26 30 35 34 39 40 45 46 45 43 42 41 41 41 42 46 50 54 59 61 62 64 68 74 76 79 81 86 90 93
25 32 35 36 32 38 40 49 48 45 45 44 42 42 44 47 49 53 56 57 58 61 66 71 76 81 83 85 90 94 96 95
26 33 39 39 40 43 47 39 40 41 38 39 42 44 47 48 52 56 59 61 65 70 75 82 86 87 90 92 95 96 96 95
24 29 37 39 42 42 37 41 38 39 41 45 47 49 52 55 58 61 63 66 72 77 81 85 86 89 93 97 97 100 101 100
22 28 32 36 38 39 41 39 41 46 49 51 51 51 53 57 60 63 67 72 77 80 84 89 92 95 99 100 100 98 94 86
23 27 32 36 35 36 39 42 41 44 47 49 51 55 58 60 63 67 72 76 80 84 90 94 98 102 101 102 101 97 79 73
25 27 29 32 35 39 42 47 50 53 54 55 58 60 62 64 69 73 76 82 87 91 94 97 99 102 102 99 84 74 67 63
30 32 35 37 40 44 47 51 54 57 58 59 61 64 66 70 74 76 82 86 89 93 94 97 100 99 91 76 65 60 58 51
36 39 42 43 46 49 51 54 56 59 60 62 64 67 70 74 76 81 85 87 90 93 98 99 99 88 72 60 55 45 40 40
40 43 45 46 48 51 53 57 58 61 62 63 66 69 72 75 79 83 86 90 93 100 101 98 86 68 53 46 36 30 32 39
42 45 47 49 51 53 55 59 60 61 62 65 68 72 74 77 82 85 88 92 99 100 97 83 65 49 38 33 33 33 36 41
45 47 49 51 52 55 59 58 59 60 63 67 71 74 77 80 83 87 91 98 98 95 82 65 50 40 34 34 35 37 40 44
48 51 53 53 55 57 58 58 59 62 65 69 73 76 79 82 86 89 98 99 95 84 67 52 41 35 33 35 37 39 42 47
50 55 56 55 56 59 58 58 60 63 69 72 75 78 81 86 90 97 98 93 84 70 54 43 37 33 35 37 38 40 44 49
52 56 55 55 58 59 58 60 63 68 71 75 78 81 84 88 95 97 93 83 70 57 44 38 34 33 36 36 38 41 45 48
Wind_Direction
295 293 292 286 291 291 298 301 308 309 298 308 314 308 310 306 297 294 297 297 299 302 304 301 301 301 304 304 303 300 299 299
286 295 291 292 304 309 302 305 305 304 308 313 312 306 307 301 298 295 296 302 302 303 303 303 304 305 305 304 305 304 303 302
290 291 291 296 303 308 305 305 305 305 306 306 304 302 297 294 296 298 300 302 303 304 304 305 306 305 306 305 305 305 303 300
295 296 298 302 305 306 309 304 301 302 303 302 301 298 298 300 300 301 302 305 307 307 307 306 306 306 306 305 304 302 300 300
289 284 291 296 300 300 302 305 309 305 304 301 301 302 303 302 303 305 307 309 308 306 303 302 303 303 303 301 302 305 306 306
298 298 299 301 297 293 291 309 308 305 303 303 303 304 306 306 306 304 302 301 302 302 304 305 306 306 306 307 307 305 304 302
300 296 302 292 292 304 312 306 303 303 301 302 300 299 298 294 295 299 303 305 307 309 309 310 310 309 307 307 304 302 303 301
301 297 299 304 307 306 301 299 295 293 295 298 299 300 298 300 303 305 306 308 309 310 311 311 309 307 306 306 305 304 306 306
298 294 296 299 300 295 297 296 294 295 297 300 300 301 302 305 306 308 309 308 309 308 310 310 309 309 309 309 308 306 304 300
310 304 303 301 302 301 300 299 296 298 302 303 305 307 308 309 310 309 308 308 309 311 314 313 311 311 310 308 307 306 302 299
317 310 306 308 310 308 306 307 310 309 308 307 308 309 310 310 309 310 311 313 315 315 314 312 311 310 309 309 307 304 302 301
320 318 315 314 312 312 314 312 309 308 308 308 308 310 311 312 312 313 315 316 315 313 313 313 313 312 312 309 305 304 302 304
325 322 319 318 317 313 311 309 307 308 308 308 309 311 311 311 313 314 315 315 314 314 316 315 316 315 312 309 310 308 310 316
320 319 318 315 312 310 308 308 308 306 307 308 309 310 311 312 314 315 315 315 317 318 317 317 316 314 313 313 315 321 316 312
317 316 316 312 310 308 311 307 308 307 307 309 310 311 312 313 316 316 316 318 319 319 320 318 315 313 314 316 318 316 317 319
315 313 312 309 310 309 312 309 307 308 310 311 312 312 315 317 317 317 318 319 320 321 320 317 314 311 310 310 311 313 316 320
314 312 309 309 311 312 310 309 308 309 311 311 312 315 317 316 317 317 319 321 322 321 319 315 312 309 308 310 309 312 315 318
313 310 309 312 311 312 310 308 309 311 311 314 315 316 317 318 318 319 321 322 322 322 317 313 311 309 312 310 309 310 315 317
309 309 311 309 309 309 308 309 310 312 313 315 317 318 319 319 320 321 322 323 322 320 315 314 311 311 311 310 309 311 314 318